Location: Black Forest
(43.4794°N, 75.0081°W)
Time: 15:21:46
(UTC-04:00)

ISS - All Passes

Search period start: 01 May 2016 00:00
Search period end: 11 May 2016 00:00
Orbit: 402 x 405 km, 51.6° (Epoch: 01 May)

Date Brightness Start Highest point End Pass type
(mag) Time Alt. Az. Time Alt. Az. Time Alt. Az.
01 May - 07:29:06 10° S 07:31:02 15° SE 07:32:58 10° E daylight
01 May - 09:03:52 10° WSW 09:07:07 74° NNW 09:10:24 10° NE daylight
01 May - 10:41:20 10° WNW 10:43:59 22° NNW 10:46:39 10° NE daylight
01 May - 12:18:40 10° NW 12:21:15 21° N 12:23:48 10° ENE daylight
01 May - 13:55:00 10° NW 13:58:13 55° NNE 14:01:26 10° ESE daylight
01 May - 15:31:56 10° W 15:34:27 21° SW 15:36:57 10° S daylight
02 May - 08:11:27 10° SW 08:14:40 62° SE 08:17:54 10° ENE daylight
02 May - 09:48:26 10° W 09:51:19 28° NNW 09:54:13 10° NE daylight
02 May - 11:26:04 10° NW 11:28:31 19° N 11:30:59 10° NE daylight
02 May - 13:02:34 10° NW 13:05:39 35° NNE 13:08:41 10° E daylight
02 May - 14:39:04 10° WNW 14:42:07 37° SW 14:45:10 10° SSE daylight
03 May - 07:19:19 10° SSW 07:22:16 32° SE 07:25:15 10° ENE daylight
03 May - 08:55:35 10° W 08:58:42 39° NNW 09:01:47 10° NE daylight
03 May - 10:33:19 10° NW 10:35:47 19° N 10:38:15 10° NE daylight
03 May - 12:10:09 10° NW 12:13:00 26° NNE 12:15:50 10° ENE daylight
03 May - 13:46:27 10° WNW 13:49:43 71° SW 13:52:57 10° SE daylight
04 May - 06:27:39 10° S 06:29:57 18° SE 06:32:16 10° E daylight
04 May - 08:02:53 10° WSW 08:06:07 62° NNW 08:09:22 10° NE daylight
04 May - 09:40:27 10° WNW 09:43:03 21° N 09:45:38 10° NE daylight
04 May - 11:17:40 10° NW 11:20:18 22° N 11:22:54 10° ENE daylight
04 May - 12:53:57 10° NW 12:57:12 65° NNE 13:00:27 10° ESE daylight
04 May - 14:31:08 10° W 14:33:21 17° SW 14:35:32 10° S daylight
05 May - 07:10:21 10° SW 07:13:36 76° SE 07:16:52 10° ENE daylight
05 May - 08:47:31 10° WNW 08:50:20 26° NNW 08:53:09 10° NE daylight
05 May - 10:25:05 10° NW 10:27:33 19° N 10:30:01 10° NE daylight
05 May - 12:01:30 10° NW 12:04:37 40° NNE 12:07:44 10° E daylight
05 May - 13:38:05 10° WNW 13:41:01 30° SW 13:43:56 10° SSE daylight
06 May - 06:18:04 10° SSW 06:21:09 40° SE 06:24:15 10° ENE daylight
06 May - 07:54:37 10° W 07:57:39 34° NNW 08:00:42 10° NE daylight
06 May - 09:32:20 10° NW 09:34:47 19° N 09:37:14 10° NE daylight
06 May - 11:09:03 10° NW 11:11:58 29° NNE 11:14:52 10° E daylight
06 May - 12:45:23 10° WNW 12:48:36 58° SW 12:51:49 10° SE daylight
07 May - 05:26:12 10° S 05:28:46 22° SE 05:31:22 10° E daylight
07 May - 07:01:49 10° WSW 07:05:01 52° NNW 07:08:14 10° NE daylight
07 May - 08:39:28 10° WNW 08:42:00 20° N 08:44:34 10° NE daylight
07 May - 10:16:34 10° NW 10:19:15 23° NNE 10:21:56 10° ENE daylight
07 May - 11:52:49 10° NW 11:56:06 78° NNE 11:59:21 10° ESE daylight
07 May - 13:30:23 10° W 13:32:09 14° SW 13:33:56 10° SSW daylight
08 May - 04:35:09 10° SSE 04:36:27 12° SE 04:37:46 10° ESE visible
08 May - 06:09:11 10° WSW 06:12:27 89° NW 06:15:44 10° ENE daylight
08 May - 07:46:31 10° WNW 07:49:15 24° NNW 07:52:00 10° NE daylight
08 May - 09:23:58 10° NW 09:26:29 20° N 09:29:00 10° ENE daylight
08 May - 11:00:20 10° NW 11:03:31 46° NNE 11:06:40 10° ESE daylight
08 May - 12:37:04 10° W 12:39:49 25° SW 12:42:34 10° SSE daylight
09 May - 05:16:47 10° SW 05:19:57 49° SE 05:23:08 10° ENE daylight
09 May - 06:53:34 10° W 06:56:32 31° NNW 06:59:30 10° NE daylight
09 May - 08:31:15 10° NW 08:33:41 19° N 08:36:08 10° NE daylight
09 May - 10:07:51 10° NW 10:10:51 31° NNE 10:13:49 10° E daylight
09 May - 11:44:14 10° WNW 11:47:24 47° SW 11:50:33 10° SE daylight
10 May - 04:24:43 10° SSW 04:27:31 26° SE 04:30:19 10° ENE visible
10 May - 06:00:41 10° W 06:03:51 45° NNW 06:07:01 10° NE daylight
10 May - 07:38:23 10° NW 07:40:53 20° N 07:43:23 10° NE daylight
10 May - 09:15:21 10° NW 09:18:06 24° NNE 09:20:52 10° ENE daylight
10 May - 10:51:37 10° WNW 10:54:53 87° SW 10:58:09 10° SE daylight
10 May - 12:29:44 10° WSW 12:30:52 11° SW 12:31:59 10° SSW daylight
